Location: Bay Ridge
(40.6340°N, 74.0146°W)
Time: 05:43:28
(UTC+00:00)

Daily predictions for brighter satellites

Satellite Brightness Start Highest point End
(mag) Time Altitude Azimuth Time Altitude Azimuth Time Altitude Azimuth
Cosmos 2227 Rocket 4.0 00:02:22 10° NW 00:07:15 30° WSW 00:12:05 10° SSW
Cosmos 2297 Rocket 4.1 00:02:45 10° NW 00:07:27 28° WSW 00:12:09 10° SSW
Ariane Rocket 4.5 00:32:14 30° NW 00:32:14 30° NW 00:34:55 10° NNW
Cosmos 2263 Rocket 4.3 00:26:57 10° NNW 00:28:02 16° N 00:28:02 16° N
Lacrosse 4 Rocket 4.4 00:45:29 10° WNW 00:46:26 12° WNW 00:46:26 12° WNW
Cosmos 2082 Rocket 4.0 08:15:50 27° ENE 08:15:50 27° ENE 08:19:05 10° NE
Cosmos 1833 Rocket 4.4 08:35:54 25° NNE 08:35:54 25° NNE 08:38:09 10° NNE
Cosmos 1980 Rocket 3.3 08:53:47 32° NNE 08:55:34 41° ENE 09:00:54 10° SE
Cosmos 1934 Rocket 4.5 09:01:34 49° N 09:01:34 49° N 09:06:05 10° N
Cosmos 1680 Rocket 4.2 09:09:46 37° NNE 09:11:33 53° ENE 09:16:43 10° SE
Cosmos 967 Rocket 4.4 09:14:33 63° SSW 09:15:41 89° ESE 09:22:07 10° NNE
Cosmos 2369 3.9 09:17:08 56° S 09:17:08 56° S 09:21:43 10° SSE
Gbstr 26 Del rocket 3.9 09:24:54 39° NE 09:24:54 39° NE 09:27:18 10° NE
CZ-4C R/B 4.4 09:28:13 13° NNW 09:28:13 13° NNW 09:30:01 10° N
Cosmos 2360 4.1 09:26:39 48° NNW 09:28:21 89° ENE 09:34:04 10° SSE
Meteor 2-2 Rocket 4.2 09:24:21 10° N 09:30:01 81° E 09:35:39 10° SSE
Meteor 1-27 4.1 09:28:11 36° NNW 09:30:40 74° W 09:36:28 10° S
COSMO-SKYMED 1 4.4 09:28:30 10° SE 09:32:17 30° ENE 09:36:07 10° N
Cosmos 2123 Rocket 4.0 09:34:50 51° WSW 09:34:50 51° WSW 09:40:24 10° SSW
SJ 16-02 1.8 09:30:53 10° S 09:35:11 60° ESE 09:39:31 10° NNE
Cosmos 1697 Rocket 2.9 09:36:07 50° SW 09:36:07 50° SW 09:40:57 10° S
CZ-3B R/B 4.3 09:33:49 11° S 09:35:39 14° SSE 09:39:02 10° SE
Cosmos 2278 3.6 09:34:57 57° WNW 09:35:54 67° WSW 09:41:33 10° S
Cosmos 923 Rocket 3.8 09:35:34 65° WNW 09:36:05 71° WSW 09:41:17 10° S
Lacrosse 5 2.5 09:42:49 39° NNW 09:42:49 39° NNW 09:47:11 10° NNE
STARLINK-48 3.7 09:42:26 61° SSE 09:42:45 65° SE 09:46:37 10° NE
Cosmos 1605 Rocket 3.9 09:39:25 10° SSW 09:45:30 57° W 09:51:34 10° N
COSMOS 2455 4.1 09:41:10 10° NNW 09:46:44 37° NE 09:52:15 10° ESE
PSLV R/B 4.4 09:44:22 10° NNE 09:48:11 57° E 09:52:04 10° S
H-2A R/B 4.4 09:44:04 10° N 09:45:33 20° N 09:45:33 20° N
CZ-2C R/B 2.3 09:44:08 10° N 09:48:55 56° WNW 09:50:04 44° WSW
ASTEX 1 3.2 09:44:26 10° S 09:49:21 75° W 09:54:21 10° N
MSX 4.2 09:46:13 10° N 09:51:25 39° WNW 09:51:25 39° WNW
NOSS 3-3 (A) 3.8 09:51:12 21° SW 09:55:21 77° NW 10:01:53 10° NNE
NOSS 3-3 (C) 3.8 09:51:15 20° SW 09:55:27 78° NW 10:01:59 10° NNE
Cosmos 1898 Rocket 3.4 09:50:17 10° SSW 09:55:29 75° WNW 10:00:47 10° NNE
Okean O Rocket 3.5 09:53:20 10° NNE 09:57:14 32° E 10:01:07 10° SSE
In-Cosmos 22 Rocket 4.2 09:52:03 10° S 09:57:21 77° E 10:02:49 10° NNE
Cosmos 2082 Rocket 2.7 09:57:46 36° WNW 09:58:02 36° WNW 10:03:18 10° N
STARLINK-43 3.9 10:00:52 41° NNW 10:00:52 41° NNW 10:04:12 10° NE
CZ-4B R/B 4.2 09:57:42 10° N 10:02:04 51° WNW 10:06:23 10° SSW
Cosmos 1937 Rocket 3.3 10:02:27 10° SSW 10:07:37 81° WNW 10:12:46 10° NNE
OAO 3 Rocket 4.0 10:05:46 24° SW 10:08:08 42° S 10:12:37 10° ESE
Helios 1A Rocket 4.1 10:06:23 10° NNE 10:10:20 44° E 10:14:14 10° S
Cosmos 1833 Rocket 4.1 10:17:39 18° NW 10:17:39 18° NW 10:20:54 10° N
SKYMED 2 3.5 10:15:56 10° S 10:20:16 79° WSW 10:24:38 10° NNW
Cosmos 2058 3.5 10:18:12 10° SW 10:22:02 34° WNW 10:25:54 10° N
Cosmos 858 Rocket 4.5 10:17:33 10° SSW 10:22:38 56° WNW 10:27:45 10° N
ALOS 2.3 10:20:53 10° NNE 10:25:35 82° ESE 10:30:16 10° S
STARLINK-71 4.5 10:21:45 10° SSW 10:25:45 50° SE 10:29:47 10° ENE
Meteor PRIRODA 4.2 10:24:05 10° N 10:27:25 33° WNW 10:30:44 10° SW
Cosmos 1328 Rocket 3.9 10:24:40 10° N 10:29:00 67° E 10:33:17 10° SSE
ATLAS 2AS CENTAUR R/B 3.3 10:21:40 10° NNW 10:29:15 61° NE 10:36:11 10° SE
CZ-4B R/B 4.4 10:27:00 10° NNW 10:28:03 16° NNW 10:28:03 16° NNW
COBE Rocket 4.4 10:25:20 10° SSW 10:30:12 41° W 10:35:02 10° NNW
Cosmos 1459 Rocket 3.9 10:24:37 10° SSW 10:30:43 68° W 10:37:00 10° N
OAO 2 Rocket 4.1 10:27:37 17° WSW 10:31:16 44° S 10:36:02 10° ESE
STARLINK-49 4.4 10:28:11 10° SSW 10:32:12 52° SE 10:36:14 10° ENE
SL-16 R/B 2.4 10:26:44 10° NNW 10:32:26 75° ENE 10:38:06 10° SSE
Cosmos 1725 Rocket 4.4 10:26:24 10° S 10:32:34 68° E 10:38:49 10° NNE
Cosmos 1151 Rocket 3.4 10:28:28 10° N 10:32:51 68° E 10:37:11 10° SSE
Cosmos 2360 Rocket 3.8 10:28:28 10° N 10:33:37 34° ENE 10:38:43 10° ESE
STARLINK-27 4.4 10:29:47 10° SSW 10:33:48 54° SE 10:37:52 10° ENE
STARLINK-74 4.3 10:31:27 10° SW 10:35:30 56° SE 10:39:34 10° ENE
Cosmos 2016 Rocket 4.0 10:30:03 10° S 10:36:17 89° W 10:42:37 10° N
SL-27 R/B 4.1 10:37:59 15° NW 10:37:59 15° NW 10:39:14 10° NNW
STARLINK-39 4.2 10:33:06 10° SW 10:37:10 58° SE 10:41:15 10° ENE
SL-4 R/B 3.7 10:33:51 13° NW 10:37:36 32° NNE 10:41:54 10° E
STARLINK 4.2 10:34:43 10° SW 10:38:48 60° SE 10:42:53 10° ENE
Cosmos 1980 Rocket 3.1 10:35:38 15° NW 10:39:21 28° WSW 10:44:06 10° SSW
COSMOS 2487 3.0 10:35:57 10° S 10:39:21 60° ESE 10:42:46 10° NNE
STARLINK-42 4.0 10:35:31 10° SW 10:39:37 64° SE 10:43:43 10° ENE
STARLINK-21 4.1 10:36:18 10° SW 10:40:23 63° SE 10:44:29 10° ENE
Cosmos 2322 Rocket 2.4 10:37:07 10° NNW 10:42:48 78° ENE 10:48:28 10° SSE
Cosmos 1408 2.5 10:40:20 10° SSW 10:44:00 68° W 10:47:41 10° N
STARLINK-45 3.8 10:39:53 10° SW 10:44:01 75° SE 10:48:09 10° NE
SJ-12 4.3 10:41:55 10° N 10:45:52 42° WNW 10:49:47 10° SW
STARLINK-76 3.9 10:42:59 10° SW 10:47:06 72° SE 10:51:15 10° NE
Cosmos 1484 Rocket 3.7 10:44:39 10° N 10:48:06 28° WNW 10:51:32 10° SW
STARLINK 3.8 10:44:37 10° SW 10:48:44 74° SE 10:52:53 10° NE
Cosmos 1408 Rocket 3.5 10:44:37 10° SSW 10:48:53 65° W 10:53:11 10° N
STARLINK-32 3.8 10:46:18 10° SW 10:50:26 77° SE 10:54:35 10° NE
Cosmos 1892 3.6 10:47:42 10° SW 10:50:57 27° WNW 10:54:12 10° NNW
Tsikada Rocket 4.3 10:44:52 10° N 10:51:18 75° E 10:57:36 10° SSE
Cosmos 2298 Rocket 4.0 10:46:13 10° SSW 10:51:31 74° WNW 10:56:50 10° NNE
STARLINK-40 3.7 10:47:57 10° SW 10:52:05 79° SE 10:56:14 10° NE
Cosmos 2100 Rocket 4.3 10:47:41 10° SW 10:53:29 41° WNW 10:59:17 10° N
Cosmos 1606 3.7 10:50:00 10° N 10:53:41 49° E 10:57:22 10° SSE
STARLINK-44 3.7 10:49:38 10° SW 10:53:46 82° SE 10:57:56 10° NE
Cosmos 1500 Rocket 4.2 10:50:07 10° S 10:54:31 63° E 10:58:56 10° NNE
STARLINK-36 3.7 10:51:17 10° SW 10:55:26 85° SE 10:59:35 10° NE
Cosmos 1437 2.7 10:53:36 10° S 10:56:38 78° E 10:59:42 10° NNE
Cosmos 372 Rocket 3.9 10:51:57 10° SSW 10:57:07 74° WNW 11:02:16 10° NNE
DMSP B5D1-3 4.5 10:52:08 10° S 10:57:14 77° WSW 11:02:24 10° NNW
Shenzhou-11 Module 1.7 10:56:36 14° WNW 10:58:51 72° NNE 11:01:34 10° E
Radarsat Rocket 4.1 10:53:01 10° NNE 10:58:52 80° ESE 11:04:50 10° SSW
SL-08 R/B 4.4 10:54:50 10° SSW 11:00:56 68° W 11:07:01 10° N
Cosmos 1766 Rocket 4.3 10:57:51 10° SW 11:01:39 29° WNW 11:05:28 10° NNW
STARLINK-35 3.6 10:57:54 10° SW 11:02:03 85° NW 11:06:12 10° NE
STARLINK-51 3.6 10:59:34 10° SW 11:03:43 83° NW 11:07:53 10° NE
STARLINK-30 3.6 11:01:15 10° SW 11:05:24 80° NW 11:09:33 10° NE
STARLINK-33 3.6 11:02:55 10° SW 11:07:03 78° NW 11:11:13 10° NE
Cosmos 1802 Rocket 4.4 11:01:08 10° SSW 11:07:12 44° WNW 11:13:18 10° N
COSMO-SKYMED 1 3.8 11:05:01 10° SSW 11:08:27 23° W 11:11:55 10° NW
STARLINK-50 3.6 11:04:35 10° SW 11:08:43 76° NW 11:12:52 10° NE
Cosmos 1048 Rocket 4.4 11:03:34 10° NNW 11:08:58 70° ENE 11:14:16 10° SSE
Gbstr 26 Del rocket 4.1 11:07:45 10° WNW 11:10:43 21° NNW 11:13:40 10° NE
Cosmos 2333 Rocket 4.2 11:06:20 10° N 11:11:05 25° NE 11:15:48 10° ESE
ADEOS Rocket 4.3 11:04:09 10° SE 11:11:43 57° ENE 11:19:01 10° N
STARLINK-56 3.6 11:07:54 10° WSW 11:12:02 71° NW 11:16:10 10° NE
Abrixas rocket 2.0 11:09:20 10° SW 11:12:20 82° SSE 11:15:22 10° ENE
CZ-4B R/B 3.4 11:07:14 10° N 11:12:24 50° WNW 11:17:40 10° SW
ATLAS CENTAUR R/B 1.8 11:08:45 10° SW 11:13:37 60° NW 11:18:23 10° NNE
Starlink (trailer) 3.6 11:09:41 10° WSW 11:13:49 69° NW 11:17:58 10° NE
SJ 16-02 3.1 11:12:03 10° W 11:14:11 13° WNW 11:16:19 10° NNW
Cosmos 1825 2.6 11:11:44 10° SSW 11:15:15 38° WNW 11:18:47 10° N
STARLINK-38 3.6 11:11:13 10° WSW 11:15:20 67° NW 11:19:28 10° NE
Meteor 1-26 Rocket 4.5 11:10:01 10° N 11:15:47 77° E 11:21:20 10° SSE
Cosmos 2061 Rocket 4.4 11:12:08 10° SW 11:17:57 40° WNW 11:23:46 10° N
